Weather in Bama

Nigeria     11°31′10″N   13°41′36″E
В апреле 2022 года жителям России запретили посещать сайт meteo.paraplan.net по решению Генеральной прокуратуры. Аудитория сайта уменьшилась в 10 раз. Владельцы сайта не видят смысла в поддержке погодного сервера в таких условиях. Сайт будет закрыт в октябре.
temp.,
°C
wind,
m/s
gust,
m/s
humid.,
%
clouds,
%
prec.,
mm/h
press.,
hPa
HPBL,
m
3 october, mon
mon301:00+26sw61275100 0.0 1009330
04:00+24sw6118169 0.0 1009317
07:00+25sw61182100 0.0 1011392
10:00+31wsw785517 0.0 1011868
13:00+35w53385 0.0 10081975
16:00+35nw433210 0.0 10062621
19:00+30wnw35455 0.0 100771
22:00+28sw486099 0.0 1009164
4 october, tue
tue401:00+27sw4970100 0.0 1008237
04:00+26sw4106798 0.0 1007282
07:00+26wsw486997 0.0 1009247
10:00+31sw455474 0.0 1010799
13:00+34sw324023 0.0 10071931
16:00+34ne02378 0.0 10052027
19:00+23sw5984100 1.6 1009201
22:00+24ssw5982100 2.0 1011230
5 october, wed
wed501:00+23sw3582100 2.4 1010137
04:00+23ssw248229 0.2 100988
07:00+25s227698 0.2 1011103
10:00+26s227131 0.0 1012156
13:00+34ese243995 0.0 10081897
16:00+32ese444685 0.0 1007924
19:00+28ese486025 0.0 1009186
22:00+27ene346535 0.1 1011147
6 october, thu
thu601:00+25ese356894 0.5 101091
04:00+26s336537 0.1 100958
07:00+26ssw236556 0.1 101191
10:00+32ssw114265 0.0 1011739
13:00+35ese243318 0.0 10082184
16:00+36ese45327 0.0 10072689
19:00+29wnw135415 0.1 100896
22:00+28s335454 0.0 100955
7 october, fri
fri701:00+26wsw47655 0.1 1009191
04:00+25sw47779 0.0 1009187
07:00+25wsw477793 0.0 1011233
10:00+31wsw445399 0.0 1012888
13:00+34sw2244100 0.0 10092278
16:00+33ssw4447100 0.0 1008610
19:00+29wsw4757100 0.0 1008167
22:00+26sw5107142 0.0 1010353